LiveATC.Net - Listen to live air traffic control over the Internet!


ICAO: LFSB  IATA: BSL   Airport: EuroAirport Basel-Mulhouse-Freiburg
City: Basel
Country: Switzerland   Continent: Europe
LFSB METAR Weather: LFSB 161330Z 14006KT CAVOK 12/07 Q1008 NOSIG
LFSB Flight Activity (FlightAware)
LFSB Webcam:  (Airport Webcams) 

LFSB Tower
Feed Status: UP   Listeners: 1
Listen in your browser - HTML5 player (in browser, HTML5)
Click here to listen with your own player (launches your MP3 player)
Archive Access: LFSB Tower
FacilityFrequency
Mulhouse Tower118.300

NOTICE

Unauthorized use prohibited. See LiveATC.net Terms of Service


Airport/ARTCC Code
Frequency Search
(e.g., 124.400, 128.75)
Site-wide search
 


Browse Feeds
Top 50 Feeds
Coverage Map
Bad Weather Areas

LiveATC FAQ
Offer LiveATC feed
Contact LiveATC.net
Press Inquiries

LiveATC on iPhone
LiveATC on Android

Windows Phone
Windows 8/10

LiveATC Mobile
(Mobile browser)

ATC Audio Archives
Interesting Recordings

LiveATC Forums


Home Page
About LiveATC.net
Make a Donation
Terms of Use
Privacy Policy

Canadian Air Freqs

AIRMETs/SIGMETs

FAA Airport Status
Nat'l Airspace Status
Arrival Demand Charts


Server Software By:
Icecast.org
Liquidsoap